Погода в Айнском

Россия / Сахалинская область     48°34′03″N   142°11′35″E
темп.,
°C
ветер,
м/с
пор.,
м/с
влажн.,
%
обл.,
%
осадки,
мм/ч
давл.,
гПа
погр.,
м
24 сентября, пт
пт2423:00+6ссв22951 0.1 101931
02:00+5ссв22960 0.0 101936
05:00+5с22974 0.0 102032
08:00+6с23989 0.0 102160
11:00+12ссз376387 0.0 10211099
14:00+14ссз575565 0.0 10211493
17:00+13ссз59625 0.0 10211233
20:00+7ссз23933 0.0 102362
25 сентября, сб
сб2523:00+6с22962 0.0 102535
02:00+6ссв12961 0.0 102519
05:00+5с22975 0.0 102624
08:00+6ссв22960 0.0 102631
11:00+13сз24670 0.0 1026763
14:00+16з34510 0.0 10251194
17:00+14з34570 0.0 1025742
20:00+7вюв01920 0.0 102612
26 сентября, вс
вс2623:00+6вюв00910 0.0 102611
02:00+6всв009199 0.0 102611
05:00+6всв1187100 0.0 102612
08:00+7в118897 0.0 102613
11:00+14зюз2367100 0.0 1025564
14:00+16зюз356187 0.0 1023737
17:00+15зюз24690 0.0 1022584
20:00+10ююз119936 0.0 102311
27 сентября, пн
пн2723:00+9ююз019961 0.0 102319
02:00+9ююз019961 0.0 102224
05:00+10ююв019981 0.0 102167
08:00+10ю129891 0.0 1021110
11:00+14юз358999 0.0 1021540
14:00+16юз46746 0.1 1020819
17:00+15юз488530 0.1 1019702
20:00+12ююз279753 0.1 1019353
28 сентября, вт
вт2823:00+10ю279977 0.1 1019205
02:00+12юз3109994 0.0 1018568
05:00+13юз5109298 0.0 1018665
08:00+13юз41093100 0.1 1018725
11:00+15юз5108690 0.1 1018854
14:00+16юз6107673 0.1 1017953
17:00+16юз5108195 0.1 1017859
20:00+13ююз3129759 0.0 1018549